sat.trackr.live / text

‹ back to catalog

STARLINK-31239

NORAD 60093 · 2024-117C

PAYLOAD ACTIVE UNKNOWN

§ Identity

Operator
Country
US
Launch date
2024-06-23
Launch site
AFETR
Launch vehicle
Mass (kg)
RCS (m²)

Purposes: comms

External: N2YO · Heavens-Above · Gunter

§ Orbital elements

Epoch: 2026-09-21T06:09:43.806528Z

Period
93.85 min
Inclination
53.1587°
Eccentricity
0.0001537
Mean motion
15.34376622 rev/d
Perigee alt
461.7 km
Apogee alt
463.8 km
Semi-major
6,840.9 km
B*
-3.3084e-5
RAAN
206.2597°
Arg perigee
86.4638°
Mean anomaly
273.6540°
Rev number
12,686

§ Raw data

STARLINK-312391 60093U 24117C   26264.25675702 -.00001493  00000+0 -33084-4 0  99972 60093  53.1587 206.2597 0001537  86.4638 273.6540 15.34376622126860

JSON: /api/v1/satellites/60093 · /tle

For live sub-satellite position, see the globe view (requires WebGL).

§ Visibility from observer

Set your observer location to see the next 7 days of passes ≥ 10°. The values pass through the URL so the page stays shareable.

No JS? Fill the form by hand. The geolocation button needs JavaScript.